Wink, TX

5:04 PM CDT on June 25, 2017 (GMT -0500)
Winkler County

Weather History for KINK - November, 2014

Change the Weather History Date:

Thursday, November 27, 2014

  Actual Average Record
Temperature  
Mean Temperature 48 °F -  
Max Temperature 64 °F 60 °F 85 °F (1960)
Min Temperature 32 °F 33 °F 8 °F (1938)
Degree Days  
Heating Degree Days 17    
Moisture  
Dew Point 28 °F    
Average Humidity 49    
Maximum Humidity 75    
Minimum Humidity 26    
Precipitation  
Precipitation 0.00 in - - ()
Sea Level Pressure  
Sea Level Pressure 30.33 in    
Wind  
Wind Speed 7 mph (ESE)    
Max Wind Speed 15 mph    
Max Gust Speed -    
Visibility 10 miles    
Events      
Averages and records for this station are not official NWS values.
T = Trace of Precipitation, MM = Missing Value Source: NWS Daily Summary

Daily Weather History Graph

Daily Weather History Graph

Search for Another Location

Airport or City:

Trip Planner

Search our weather history database for the weather conditions in past years. The results will help you decide how hot, cold, wet, or windy it might be!

Date:

Astronomy

Nov. 27, 2014 Rise Set
Actual Time 7:31 AM CST 5:49 PM CST
Civil Twilight 7:05 AM CST 6:15 PM CST
Nautical Twilight 6:35 AM CST 6:45 PM CST
Astronomical Twilight 6:05 AM CST 7:14 PM CST
Moon 11:56 AM CST (11/27) 11:22 PM CST (11/27)
Length of Visible Light 11h 10m
Length of Day
10h 17m
Waxing Crescent, 31% of the Moon is Illuminated
Nov 27
Waxing Crescent
Nov 29
First Quarter
Dec 6
Full
Dec 14
Last Quarter
Dec 21
New

Hourly Weather History & Observations

Time (CST) Temp. Windchill Dew Point Humidity Pressure Visibility Wind Dir Wind Speed Gust Speed Precip Events Conditions
12:53 AM 37.0 °F 33.3 °F 24.1 °F 59% 30.31 in 10.0 mi NNE 4.6 mph - N/A   Clear
1:53 AM 35.1 °F 30.1 °F 24.1 °F 64% 30.33 in 10.0 mi NNE 5.8 mph - N/A   Clear
2:53 AM 34.0 °F 29.8 °F 24.1 °F 67% 30.35 in 10.0 mi NE 4.6 mph - N/A   Clear
3:53 AM 34.0 °F 28.8 °F 25.0 °F 70% 30.35 in 10.0 mi ENE 5.8 mph - N/A   Clear
4:53 AM 34.0 °F 29.8 °F 25.0 °F 70% 30.36 in 10.0 mi ENE 4.6 mph - N/A   Clear
5:53 AM 37.0 °F 32.4 °F 28.0 °F 70% 30.36 in 10.0 mi ESE 5.8 mph - N/A   Clear
6:53 AM 32.0 °F 26.4 °F 25.0 °F 75% 30.41 in 10.0 mi NNE 5.8 mph - N/A   Clear
7:53 AM 32.0 °F 25.6 °F 25.0 °F 75% 30.44 in 10.0 mi North 6.9 mph - N/A   Clear
8:53 AM 44.1 °F 39.0 °F 30.9 °F 60% 30.44 in 10.0 mi East 9.2 mph - N/A   Clear
9:53 AM 48.9 °F - 32.0 °F 52% 30.44 in 10.0 mi SE 13.8 mph - N/A   Clear
10:53 AM 52.0 °F - 30.9 °F 45% 30.43 in 10.0 mi SE 15.0 mph - N/A   Clear
11:53 AM 55.0 °F - 30.9 °F 40% 30.40 in 10.0 mi SSE 10.4 mph - N/A   Clear
12:53 PM 59.0 °F - 30.0 °F 33% 30.35 in 10.0 mi SSE 9.2 mph - N/A   Clear
1:53 PM 61.0 °F - 30.0 °F 31% 30.32 in 10.0 mi South 5.8 mph - N/A   Clear
2:53 PM 62.1 °F - 28.0 °F 28% 30.29 in 10.0 mi SSE 5.8 mph - N/A   Clear
3:53 PM 64.0 °F - 28.0 °F 26% 30.27 in 10.0 mi SE 8.1 mph - N/A   Clear
4:53 PM 63.0 °F - 28.0 °F 27% 30.27 in 10.0 mi SE 9.2 mph - N/A   Clear
5:53 PM 57.9 °F - 28.0 °F 32% 30.26 in 10.0 mi SE 5.8 mph - N/A   Clear
6:53 PM 53.1 °F - 28.0 °F 38% 30.27 in 10.0 mi ESE 5.8 mph - N/A   Clear
7:53 PM 50.0 °F - 27.0 °F 41% 30.28 in 10.0 mi ESE 8.1 mph - N/A   Clear
8:53 PM 52.0 °F - 27.0 °F 38% 30.25 in 10.0 mi SE 11.5 mph - N/A   Clear
9:53 PM 48.9 °F - 27.0 °F 43% 30.24 in 10.0 mi SE 10.4 mph - N/A   Clear
10:53 PM 46.9 °F - 28.0 °F 48% 30.24 in 10.0 mi SE 8.1 mph - N/A   Clear
11:53 PM 44.1 °F 39.5 °F 28.9 °F 55% 30.23 in 10.0 mi SE 8.1 mph - N/A   Clear